This is the latest recevied weather packets stored in our database for station/object 9M4GHZ-13. If no packets are shown the sender has not sent any weather packets the latest 10 day(s).
| Time | Temp. | Humidity | Pressure | Rain* | Wind** | Luminosity | Snow |
|---|---|---|---|---|---|---|---|
| 1778123405 | 29.44° C | 79% | 1008.9 hPa | - | - | - | - |
| 1778122805 | 29.44° C | 79% | 1008.9 hPa | - | - | - | - |
| 1778122205 | 29.44° C | 80% | 1009.3 hPa | - | - | - | - |
| 1778121605 | 29.44° C | 83% | 1009.2 hPa | - | - | - | - |
| 1778121005 | 28.89° C | 84% | 1009.1 hPa | - | - | - | - |
| 1778120405 | 27.78° C | 88% | 1009.2 hPa | - | - | - | - |
| 1778119804 | 27.78° C | 89% | 1009.2 hPa | - | - | - | - |
| 1778119205 | 27.78° C | 89% | 1009.3 hPa | - | - | - | - |
| 1778118605 | 27.22° C | 89% | 1009.4 hPa | - | - | - | - |
| 1778118005 | 26.67° C | 92% | 1009.4 hPa | - | - | - | - |
| 1778117405 | 26.67° C | 93% | 1009.5 hPa | - | - | - | - |
| 1778116804 | 26.11° C | 94% | 1009.4 hPa | - | - | - | - |
| 1778116206 | 25.56° C | 96% | 1009.4 hPa | - | - | - | - |
| 1778115605 | 25.56° C | 97% | 1009.3 hPa | - | - | - | - |
| 1778115004 | 25.56° C | 97% | 1009.3 hPa | - | - | - | - |
| 1778114405 | 25° C | 98% | 1009.4 hPa | - | - | - | - |
| 1778113805 | 25° C | 98% | 1009.1 hPa | - | - | - | - |
| 1778113205 | 25° C | 98% | 1009 hPa | - | - | - | - |
| 1778112605 | 25° C | 98% | 1008.8 hPa | - | - | - | - |
| 1778112005 | 25° C | 98% | 1008.8 hPa | - | - | - | - |
| 1778111404 | 24.44° C | 98% | 1008.3 hPa | - | - | - | - |
| 1778110806 | 24.44° C | 98% | 1008 hPa | - | - | - | - |
| 1778110205 | 24.44° C | 98% | 1008 hPa | - | - | - | - |
| 1778109605 | 24.44° C | 98% | 1008 hPa | - | - | - | - |
| 1778109005 | 24.44° C | 98% | 1007.8 hPa | - | - | - | - |
* Rain since midnight (hover to see other rain measurements)
** Current wind speed in m/s (hover to see current wind gust speed)